Simultaneous Nadir Overpasses (SNOs) Predictions

Prediction of SNOs between AQUA and METOP-A Satellite Orbit:

Table of predicted SNOs for the next 14.0 days since TLE Epoch: 10/16/2015
Index Date (AQUA) Time (AQUA) Lat,Lon (AQUA) SZA (AQUA ) Date (METOP-A) Time (METOP-A) Lat,Lon (METOP-A) SZA (METOP-A ) Distance(km) Time Diff (sec)
1 10/19/2015 02:19:39 -73.67, -40.37 96.60 10/19/2015 02:18:28 -73.60, -41.47 96.66 35.62 71
2 10/19/2015 03:09:12 73.94, 126.67 83.69 10/19/2015 03:09:01 73.94, 126.67 83.69 0.48 11
3 10/19/2015 03:58:39 -74.02, -65.87 96.21 10/19/2015 03:59:41 -74.02, -65.81 96.22 1.99 62
4 10/21/2015 21:53:57 -73.66, 26.08 95.60 10/21/2015 21:52:46 -73.62, 25.00 95.63 34.19 71
5 10/21/2015 22:43:30 73.94,-166.89 84.70 10/21/2015 22:43:19 73.95,-166.87 84.71 1.92 11
6 10/21/2015 23:32:57 -74.02, 0.57 95.21 10/21/2015 23:34:00 -73.99, 0.54 95.24 3.33 63
7 10/24/2015 17:28:15 -73.73, 92.36 94.55 10/24/2015 17:27:03 -73.64, 91.47 94.62 29.75 72
8 10/24/2015 18:17:47 73.95,-100.50 85.70 10/24/2015 18:17:36 73.97,-100.41 85.72 3.23 11
9 10/24/2015 19:07:14 -74.03, 66.97 94.21 10/24/2015 19:08:17 -74.01, 67.01 94.24 2.81 63
10 10/27/2015 13:02:33 -73.76, 158.72 93.55 10/27/2015 13:01:21 -73.66, 157.93 93.64 27.08 72
11 10/27/2015 13:52:04 73.94, -34.04 86.65 10/27/2015 13:51:55 73.93, -34.07 86.64 1.21 9
12 10/27/2015 14:41:31 -74.01, 133.44 93.27 10/27/2015 14:42:35 -74.03, 133.48 93.26 2.03 64
13 10/30/2015 08:36:51 -73.81,-134.97 92.56 10/30/2015 08:35:38 -73.72,-135.49 92.64 18.87 73
14 10/30/2015 09:26:21 73.94, 32.37 87.59 10/30/2015 09:26:13 73.95, 32.38 87.60 0.29 8
15 10/30/2015 10:15:48 -74.01,-160.14 92.33 10/30/2015 10:16:54 -73.99,-160.17 92.35 2.53 66




NCC Satellite Simultaneous Nadir Overpasses (SNOs) Prediction Service
